Date,TemperatureHighF,TemperatureAvgF,TemperatureLowF,DewpointHighF,DewpointAvgF,DewpointLowF,HumidityHigh,HumidityAvg,HumidityLow,PressureMaxIn,PressureMinIn,WindSpeedMaxMPH,WindSpeedAvgMPH,GustSpeedMaxMPH,PrecipitationSumIn
2013-1-1,78.0,64.6,54.0,63.0,58.9,54.0,100,84,54,30.22,30.06,8,3,14,0.00
2013-1-2,81.0,67.9,57.0,70.0,63.0,57.0,100,87,49,30.09,29.99,7,4,12,0.00
2013-1-3,79.0,67.1,60.0,72.0,64.9,60.0,100,94,60,30.17,30.03,9,2,15,0.00
2013-1-4,64.0,59.8,57.0,64.0,59.8,57.0,100,100,98,30.27,30.14,10,6,15,0.00
2013-1-5,80.0,66.3,57.0,67.0,61.2,56.0,100,85,56,30.29,30.18,9,5,14,0.00
2013-1-6,80.0,69.2,64.0,73.0,67.2,64.0,100,94,63,30.22,30.06,10,3,15,0.00
2013-1-7,69.0,64.9,60.0,67.0,62.4,58.0,100,92,77,30.21,30.10,13,7,19,0.00
2013-1-8,84.0,71.9,63.0,72.0,66.9,63.0,100,87,56,30.22,30.12,8,4,14,0.00
2013-1-9,87.0,75.4,68.0,75.0,69.2,65.0,100,84,49,30.29,30.18,14,6,19,0.00
2013-1-10,85.0,73.7,67.0,74.0,67.1,62.0,100,83,48,30.29,30.20,18,6,26,0.00
2013-1-11,85.0,72.0,65.0,74.0,67.2,65.0,100,87,52,30.27,30.14,11,4,18,0.00
2013-1-12,85.0,72.3,64.0,73.0,65.1,62.0,100,81,47,30.19,30.09,12,4,18,0.00
2013-1-13,86.0,71.8,62.0,70.0,65.3,60.0,100,83,43,30.16,30.07,9,5,17,0.00
2013-1-14,82.0,70.0,60.0,69.0,63.4,60.0,100,82,54,30.20,30.12,11,4,16,0.00
2013-1-15,82.0,69.5,60.0,72.0,64.3,60.0,100,86,53,30.16,30.06,8,2,12,0.00
2013-1-16,82.0,71.0,63.0,70.0,63.2,58.0,100,80,46,30.12,30.01,7,3,12,0.00
2013-1-17,76.0,63.9,56.0,72.0,61.0,48.0,100,91,71,30.14,30.01,16,8,27,0.00
2013-1-18,66.0,54.0,40.0,61.0,49.4,37.0,100,85,66,30.29,30.13,14,8,24,0.00
2013-1-19,74.0,63.5,54.0,65.0,59.5,54.0,100,88,66,30.27,30.14,13,5,21,0.00
2013-1-20,75.0,65.8,60.0,65.0,62.4,60.0,100,90,67,30.17,30.04,8,5,13,0.00
2013-1-21,74.0,65.7,60.0,69.0,62.4,57.0,100,89,72,30.10,30.00,7,4,10,0.00
2013-1-22,67.0,58.5,48.0,58.0,47.9,38.0,98,71,35,30.27,30.06,12,6,20,0.00
2013-1-23,71.0,56.7,46.0,48.0,41.8,33.0,100,63,25,30.35,30.26,9,4,15,0.00
2013-1-24,74.0,57.6,45.0,54.0,48.9,45.0,100,78,38,30.33,30.22,8,3,12,0.00
2013-1-25,76.0,61.1,48.0,61.0,51.5,48.0,100,76,39,30.32,30.18,8,3,15,0.00
2013-1-26,76.0,61.6,47.0,59.0,53.6,47.0,100,79,43,30.28,30.16,7,2,12,0.00
2013-1-27,79.0,65.4,52.0,65.0,57.2,52.0,100,79,41,30.31,30.22,10,4,16,0.00
2013-1-28,84.0,69.3,60.0,70.0,63.4,59.0,100,85,45,30.32,30.21,14,5,21,0.00
2013-1-29,85.0,71.4,62.0,73.0,66.1,62.0,100,86,49,30.24,30.10,14,6,21,0.00
2013-1-30,83.0,71.9,64.0,70.0,66.0,63.0,100,84,51,30.12,29.94,17,8,30,0.00
2013-1-31,69.0,59.0,46.0,69.0,43.2,31.0,100,59,29,30.24,29.95,12,7,20,0.00
2013-2-1,69.0,53.9,42.0,47.0,37.1,25.0,92,58,20,30.36,30.22,11,5,18,0.00
2013-2-2,74.0,58.4,46.0,54.0,44.7,40.0,98,65,32,30.30,30.15,10,4,13,0.00
2013-2-3,73.0,56.7,44.0,53.0,47.4,41.0,100,75,44,30.21,30.08,11,4,17,0.00
2013-2-4,72.0,57.1,44.0,56.0,44.7,34.0,100,71,26,30.15,30.03,7,2,12,0.00
2013-2-5,79.0,61.4,44.0,58.0,49.9,42.0,100,70,35,30.10,29.99,6,2,10,0.00
2013-2-6,80.0,68.1,57.0,63.0,59.0,56.0,100,76,46,30.12,30.03,9,2,13,0.00
2013-2-7,82.0,70.5,60.0,70.0,63.3,56.0,100,81,47,30.08,29.90,14,7,22,0.00
2013-2-8,82.0,70.0,57.0,69.0,62.0,54.0,100,80,39,30.09,29.89,9,6,15,0.00
2013-2-9,79.0,64.4,54.0,59.0,56.3,52.0,100,79,39,30.19,30.06,10,6,16,0.00
2013-2-10,82.0,68.0,58.0,64.0,59.9,58.0,100,78,46,30.26,30.16,12,6,23,0.00
2013-2-11,83.0,70.0,59.0,68.0,62.4,59.0,100,80,47,30.22,30.08,11,4,17,0.00
2013-2-12,83.0,72.0,63.0,72.0,66.2,62.0,100,85,51,30.12,29.96,8,5,16,0.00
2013-2-13,84.0,73.2,62.0,74.0,68.3,61.0,100,87,57,30.00,29.88,15,7,26,0.00
2013-2-14,68.0,62.2,60.0,65.0,61.8,60.0,100,99,83,30.05,29.94,10,3,17,0.00
2013-2-15,69.0,61.1,57.0,61.0,59.1,57.0,100,94,68,30.08,29.97,7,2,10,0.00
2013-2-16,69.0,57.3,51.0,57.0,50.0,39.0,100,79,50,30.12,29.94,16,7,27,0.00
2013-2-17,56.0,47.0,38.0,39.0,27.2,20.0,82,48,25,30.33,30.12,15,7,26,0.00
2013-2-18,72.0,53.9,35.0,50.0,42.5,34.0,100,69,38,30.35,30.21,13,5,27,0.00
2013-2-19,78.0,63.4,49.0,61.0,54.4,48.0,100,76,47,30.21,30.08,12,4,21,0.00
2013-2-20,80.0,67.2,59.0,67.0,62.4,59.0,100,87,54,30.13,30.01,7,3,12,0.00
2013-2-21,84.0,69.7,58.0,68.0,62.4,58.0,100,81,45,30.12,29.99,8,4,11,0.00
2013-2-22,87.0,73.4,63.0,72.0,65.8,60.0,100,81,42,30.09,29.98,15,5,24,0.00
2013-2-23,86.0,75.1,69.0,73.0,69.5,65.0,100,85,52,30.03,29.90,11,6,21,0.00
2013-2-24,84.0,73.9,68.0,72.0,68.9,64.0,100,87,52,29.98,29.90,10,4,16,0.00
2013-2-25,85.0,74.6,67.0,73.0,67.3,64.0,100,81,51,29.93,29.79,10,4,17,0.00
2013-2-26,77.0,71.2,64.0,75.0,70.1,64.0,100,97,77,29.90,29.75,14,7,25,0.00
2013-2-27,75.0,66.0,58.0,65.0,59.9,53.0,100,83,49,29.99,29.89,9,5,17,0.00
2013-2-28,73.0,62.5,54.0,59.0,54.3,51.0,100,77,46,30.02,29.92,13,6,22,0.00
2013-3-1,62.0,56.1,51.0,54.0,45.9,41.0,94,70,51,30.03,29.93,11,6,17,0.00
2013-3-2,58.0,52.2,44.0,45.0,41.3,38.0,90,67,52,30.07,29.98,14,6,25,0.00
2013-3-3,55.0,46.5,38.0,44.0,37.9,33.0,95,73,53,30.17,30.00,18,7,29,0.00
2013-3-4,69.0,51.4,38.0,47.0,36.9,30.0,97,64,26,30.23,30.12,9,3,17,0.00
2013-3-5,77.0,59.3,44.0,60.0,49.1,41.0,100,73,35,30.17,30.05,9,5,17,0.00
2013-3-6,68.0,59.3,48.0,64.0,48.2,34.0,100,71,29,30.14,29.97,16,9,29,0.00
2013-3-7,68.0,53.1,40.0,47.0,40.5,36.0,93,66,34,30.22,30.11,12,5,20,0.00
2013-3-8,77.0,59.0,44.0,52.0,43.9,29.0,100,66,17,30.23,30.11,8,4,17,0.00
2013-3-9,77.0,62.9,50.0,54.0,51.1,47.0,100,70,38,30.22,30.13,9,5,13,0.00
2013-3-10,83.0,67.1,55.0,58.0,55.8,53.0,100,71,36,30.18,30.06,13,6,21,0.00
2013-3-11,79.0,67.7,58.0,62.0,58.8,57.0,100,76,48,30.12,29.93,18,6,27,0.00
2013-3-12,69.0,64.9,56.0,69.0,63.4,56.0,100,95,81,30.03,29.90,12,8,20,0.00
2013-3-13,75.0,61.0,49.0,56.0,45.9,36.0,100,66,24,30.19,24.77,13,7,22,0.00
2013-3-14,70.0,56.7,46.0,49.0,39.2,29.0,100,58,22,30.27,30.16,12,6,21,0.00
2013-3-15,73.0,56.8,41.0,51.0,42.2,34.0,100,65,29,30.30,30.16,11,4,19,0.00
2013-3-16,79.0,60.9,45.0,56.0,47.7,41.0,100,68,26,30.21,30.07,9,3,15,0.00
2013-3-17,76.0,63.9,50.0,62.0,55.5,50.0,100,77,48,30.15,30.02,10,3,18,0.00
2013-3-18,78.0,67.4,60.0,71.0,64.6,60.0,100,92,63,30.07,29.92,11,4,21,0.00
2013-3-19,85.0,71.8,62.0,71.0,64.3,59.0,100,81,44,30.03,29.90,11,3,18,0.00
2013-3-20,74.0,67.4,62.0,70.0,64.4,59.0,100,91,63,29.98,29.82,15,5,29,0.00
2013-3-21,72.0,60.9,50.0,62.0,44.5,32.0,100,62,23,29.99,29.88,10,6,17,0.00
2013-3-22,77.0,61.2,45.0,70.0,54.5,41.0,100,81,40,30.01,29.90,10,4,17,0.00
2013-3-23,85.0,72.9,64.0,77.0,68.4,64.0,100,88,56,29.99,29.80,13,6,21,0.00
2013-3-24,81.0,74.7,71.0,77.0,72.6,69.0,100,94,69,29.86,29.67,16,9,30,0.00
2013-3-25,72.0,64.8,54.0,71.0,50.9,35.0,100,67,27,30.05,29.77,13,8,23,0.00
2013-3-26,60.0,53.1,46.0,49.0,38.5,30.0,86,59,39,30.25,30.05,16,10,27,0.00
2013-3-27,64.0,50.3,39.0,42.0,37.1,31.0,95,64,31,30.32,30.21,9,6,19,0.00
2013-3-28,72.0,56.1,42.0,47.0,39.1,28.0,100,62,21,30.31,30.19,8,4,22,0.00
2013-3-29,76.0,60.7,45.0,54.0,42.9,32.0,100,60,20,30.34,30.20,9,3,15,0.00
2013-3-30,78.0,63.8,50.0,58.0,51.9,47.0,100,70,37,30.27,30.13,9,4,16,0.00
2013-3-31,81.0,67.9,55.0,61.0,54.7,-99.9,100,69,36,30.19,30.01,8,4,18,0.00
2013-4-1,82.0,71.3,62.0,70.0,64.3,60.0,100,82,48,30.04,29.96,12,6,21,0.00
2013-4-2,86.0,72.5,62.0,67.0,61.6,54.0,100,74,35,30.10,30.00,7,3,12,0.00
2013-4-3,87.0,74.0,63.0,72.0,65.3,60.0,100,77,44,30.08,29.94,15,6,22,0.00
2013-4-4,70.0,68.4,66.0,70.0,68.3,66.0,100,100,96,30.05,29.88,13,6,19,0.00
2013-4-5,75.0,68.0,62.0,72.0,64.6,58.0,100,90,56,29.97,29.83,16,7,35,0.00
2013-4-6,81.0,66.5,55.0,62.0,58.2,54.0,100,78,45,30.11,29.97,11,7,20,0.00
2013-4-7,84.0,71.2,60.0,66.0,61.1,56.0,100,75,41,30.16,30.05,8,5,13,0.00
2013-4-8,86.0,73.7,63.0,67.0,61.1,53.0,100,70,34,30.14,30.06,8,4,16,0.00
2013-4-9,85.0,72.8,62.0,73.0,64.4,62.0,100,78,49,30.17,30.08,14,5,20,0.00
2013-4-10,90.0,75.0,62.0,72.0,65.2,61.0,100,76,41,30.13,29.97,11,4,18,0.00
2013-4-11,88.0,77.4,71.0,76.0,71.9,67.0,100,86,51,30.02,29.85,15,9,24,0.00
2013-4-12,83.0,77.0,73.0,77.0,73.5,69.0,100,90,66,29.93,29.84,13,8,23,0.00
2013-4-13,87.0,77.2,69.0,75.0,69.2,65.0,100,79,49,29.98,29.89,8,3,14,0.00
2013-4-14,89.0,77.6,69.0,75.0,70.4,62.0,100,81,54,30.01,29.85,21,7,35,0.00
2013-4-15,90.0,76.4,65.0,76.0,67.2,64.0,100,77,45,30.09,29.94,8,4,14,0.00
2013-4-16,90.0,78.2,69.0,76.0,69.9,66.0,100,79,46,30.15,30.03,11,6,20,0.00
2013-4-17,88.0,76.1,66.0,73.0,65.9,59.0,100,75,38,30.14,30.02,12,6,18,0.00
2013-4-18,90.0,77.0,66.0,74.0,68.1,65.0,100,78,45,30.07,29.94,11,4,22,0.00
2013-4-19,88.0,78.0,70.0,78.0,70.4,64.0,100,81,48,30.03,29.93,13,6,24,0.00
2013-4-20,77.0,71.3,65.0,73.0,67.9,64.0,100,90,69,30.14,29.97,10,6,19,0.00
2013-4-21,84.0,70.7,61.0,73.0,67.1,61.0,100,90,60,30.14,30.01,9,6,16,0.00
2013-4-22,81.0,72.1,68.0,72.0,69.1,66.0,100,91,62,30.09,29.98,14,6,26,0.00
2013-4-23,84.0,73.0,64.0,68.0,64.6,60.0,100,78,47,30.12,30.02,14,8,21,0.00
2013-4-24,88.0,73.6,61.0,68.0,62.4,56.0,100,73,36,30.16,30.07,8,3,15,0.00
2013-4-25,88.0,75.4,63.0,71.0,63.2,54.0,100,71,32,30.22,30.11,8,3,11,0.00
2013-4-26,88.0,75.9,64.0,71.0,64.2,61.0,100,71,41,30.25,30.15,9,3,14,0.00
2013-4-27,88.0,75.4,67.0,73.0,67.1,60.0,100,78,40,30.24,30.09,10,5,19,0.00
2013-4-28,88.0,75.6,64.0,69.0,63.6,57.0,100,71,38,30.14,29.97,12,6,20,0.00
2013-4-29,87.0,74.9,65.0,71.0,65.8,60.0,100,76,41,30.04,29.90,13,4,19,0.00
2013-4-30,92.0,75.1,68.0,74.0,68.3,63.0,100,84,39,30.02,29.90,15,5,21,0.00
2013-5-1,76.0,70.6,67.0,76.0,70.6,67.0,100,100,100,30.01,29.93,7,4,14,0.00
2013-5-2,76.0,70.4,64.0,75.0,69.9,64.0,100,98,88,29.97,29.82,11,4,15,0.00
2013-5-3,84.0,72.8,66.0,75.0,68.8,65.0,100,89,53,29.85,29.70,14,4,22,0.00
2013-5-4,81.0,73.2,68.0,71.0,68.0,65.0,100,86,60,29.81,29.68,13,8,21,0.00
2013-5-5,78.0,70.0,63.0,69.0,58.1,48.0,100,70,36,29.96,29.78,14,8,23,0.00
2013-5-6,78.0,68.7,62.0,66.0,59.6,54.0,100,75,47,30.02,29.91,12,6,21,0.00
2013-5-7,79.0,67.2,57.0,62.0,58.6,56.0,100,77,47,30.07,29.98,10,5,18,0.00
2013-5-8,81.0,70.2,60.0,67.0,61.2,56.0,100,77,43,30.14,30.04,9,4,16,0.00
2013-5-9,86.0,73.2,60.0,69.0,61.2,56.0,100,71,37,30.16,30.08,6,2,10,0.00
2013-5-10,91.0,76.3,65.0,77.0,65.8,-99.9,100,77,42,30.15,30.01,14,5,21,0.00
2013-5-11,87.0,77.0,68.0,80.0,71.7,68.0,100,86,54,30.08,29.99,12,4,22,0.00
2013-5-12,87.0,76.8,70.0,79.0,70.2,-99.9,100,84,53,30.05,29.96,11,5,20,0.00
2013-5-13,85.0,73.7,64.0,71.0,63.2,52.0,100,74,39,30.13,30.01,10,5,16,0.00
2013-5-14,84.0,71.4,58.0,62.0,55.2,42.0,100,64,24,30.20,30.11,9,5,16,0.00
2013-5-15,88.0,73.3,59.0,67.0,59.4,54.0,100,67,36,30.21,30.08,8,4,17,0.00
2013-5-16,89.0,70.7,64.0,68.0,42.3,-99.9,100,68,32,30.13,30.01,9,5,17,0.00
2013-5-17,90.0,74.7,64.0,71.0,56.9,-99.9,100,71,34,30.10,30.03,6,3,12,0.00
2013-5-18,93.0,79.9,69.0,76.0,67.2,56.0,100,71,30,30.11,29.99,8,3,16,0.00
2013-5-19,92.0,79.4,69.0,76.0,69.1,62.0,100,75,37,30.10,29.98,13,4,21,0.00
2013-5-20,92.0,76.5,67.0,76.0,70.3,65.0,100,85,42,30.09,29.97,23,4,49,0.00
2013-5-21,85.0,73.6,68.0,77.0,71.5,68.0,100,94,62,30.04,29.95,12,3,18,0.00
2013-5-22,87.0,75.1,68.0,77.0,71.0,67.0,100,89,53,29.98,29.90,9,2,13,0.00
2013-5-23,89.0,78.1,69.0,77.0,71.0,66.0,100,82,47,30.03,29.93,7,3,12,0.00
2013-5-24,94.0,80.8,71.0,79.0,68.2,54.0,100,72,27,30.09,29.99,10,4,16,0.00
2013-5-25,89.0,79.0,71.0,73.0,66.8,61.0,100,70,40,30.19,30.07,12,6,21,0.00
2013-5-26,88.0,75.5,63.0,67.0,61.1,48.0,100,67,27,30.22,30.11,9,4,19,0.00
2013-5-27,89.0,76.6,65.0,71.0,64.9,60.0,100,72,41,30.18,30.07,9,5,17,0.00
2013-5-28,89.0,75.7,68.0,77.0,71.9,68.0,100,90,53,30.15,30.05,12,6,24,0.00
2013-5-29,87.0,76.5,71.0,77.0,72.5,69.0,100,89,58,30.11,30.05,15,6,30,0.00
2013-5-30,87.0,78.2,72.0,77.0,71.5,67.0,100,82,57,30.10,30.02,13,7,29,0.00
2013-5-31,88.0,78.3,72.0,79.0,72.6,70.0,100,84,58,30.09,30.01,12,6,20,0.00
2013-6-1,90.0,78.4,73.0,78.0,74.1,72.0,100,88,57,30.06,29.95,14,5,20,0.00
2013-6-2,90.0,78.4,73.0,79.0,73.4,-99.9,100,90,51,30.01,29.91,11,3,18,0.00
2013-6-3,85.0,77.0,73.0,79.0,75.4,72.0,100,95,70,30.02,29.93,8,3,14,0.00
2013-6-4,84.0,77.1,74.0,77.0,73.6,70.0,100,90,67,30.04,29.96,11,4,16,0.00
2013-6-5,87.0,78.4,74.0,80.0,73.9,68.0,100,88,60,30.03,29.91,14,6,22,0.00
2013-6-6,78.0,74.9,73.0,78.0,74.9,73.0,100,100,97,29.93,29.71,20,10,36,0.00
2013-6-7,86.0,77.7,72.0,78.0,73.9,71.0,100,90,61,29.98,29.81,10,4,17,0.00
2013-6-8,90.0,76.0,72.0,79.0,74.0,72.0,100,95,62,30.11,29.97,15,3,27,0.00
2013-6-9,92.0,79.5,71.0,81.0,73.8,66.0,100,85,42,30.11,30.01,10,5,16,0.00
2013-6-10,92.0,80.0,74.0,80.0,74.8,69.0,100,86,50,30.09,30.00,13,4,21,0.00
2013-6-11,91.0,79.9,74.0,81.0,74.8,70.0,100,86,52,30.09,30.01,11,3,17,0.00
2013-6-12,96.0,80.7,71.0,78.0,71.7,66.0,100,79,39,30.09,30.01,9,2,26,0.00
2013-6-13,92.0,80.2,72.0,80.0,73.9,70.0,100,84,49,30.05,29.92,12,4,18,0.00
2013-6-14,89.0,80.8,74.0,79.0,73.3,69.0,100,80,55,29.96,29.87,11,6,19,0.00
2013-6-15,92.0,80.6,75.0,80.0,75.9,72.0,100,88,54,30.06,29.93,10,3,18,0.00
2013-6-16,95.0,82.4,75.0,81.0,75.3,67.0,100,82,41,30.09,30.01,9,4,14,0.00
2013-6-17,94.0,83.4,76.0,80.0,74.4,68.0,100,78,45,30.09,29.99,8,3,14,0.00
2013-6-18,92.0,81.5,74.0,79.0,74.2,69.0,100,81,49,30.08,29.98,8,3,16,0.00
2013-6-19,91.0,80.2,74.0,81.0,75.1,71.0,100,87,52,30.06,29.98,12,4,22,0.00
2013-6-20,93.0,80.3,73.0,78.0,73.8,71.0,100,83,53,30.09,30.01,10,4,16,0.00
2013-6-22,93.0,86.6,78.0,77.0,71.4,63.0,96,64,39,30.13,30.03,8,3,15,0.00
2013-6-23,93.0,79.8,74.0,80.0,74.9,69.0,100,87,46,30.16,30.06,14,4,22,0.00
2013-6-24,94.0,81.9,74.0,79.0,74.3,68.0,100,81,44,30.19,30.08,8,4,17,0.00
2013-6-25,94.0,83.2,74.0,78.0,73.8,69.0,100,76,46,30.16,30.03,9,4,17,0.00
2013-6-26,93.0,78.0,72.0,79.0,74.7,71.0,100,91,50,30.10,30.01,14,3,25,0.00
2013-6-27,94.0,79.9,72.0,79.0,72.8,68.0,100,82,47,30.07,29.96,8,2,15,0.00
2013-6-28,87.0,77.5,73.0,81.0,76.7,73.0,100,98,70,30.00,29.87,8,3,12,0.00
2013-6-29,87.0,78.9,75.0,80.0,75.6,71.0,100,91,62,29.91,29.82,15,5,26,0.00
2013-6-30,84.0,76.4,74.0,81.0,76.0,74.0,100,99,82,29.90,29.83,12,5,17,0.00
2013-7-1,78.0,74.2,72.0,78.0,74.2,72.0,100,100,100,30.01,29.88,12,6,20,0.00
2013-7-2,85.0,74.5,72.0,79.0,73.9,72.0,100,98,71,30.10,29.98,11,4,18,0.00
2013-7-3,89.0,76.7,72.0,82.0,74.6,72.0,100,94,62,30.14,30.07,23,5,34,0.00
2013-7-4,89.0,78.0,72.0,81.0,74.9,72.0,100,92,62,30.15,30.08,14,6,27,0.00
2013-7-5,92.0,78.2,74.0,81.0,76.3,74.0,100,95,58,30.16,30.07,14,5,23,0.00
2013-7-6,94.0,81.7,74.0,80.0,74.8,71.0,100,82,49,30.13,30.03,13,6,19,0.00
2013-7-7,92.0,82.2,75.0,81.0,76.0,73.0,100,83,54,30.14,30.03,12,4,23,0.00
2013-7-8,93.0,79.6,75.0,81.0,73.4,-99.9,100,87,51,30.15,30.07,8,3,13,0.00
2013-7-9,90.0,80.2,74.0,78.0,74.2,69.0,100,84,52,30.17,30.07,14,4,20,0.00
2013-7-10,91.0,77.6,73.0,78.0,69.9,-99.9,100,84,53,30.09,29.98,12,3,23,0.00
2013-7-11,89.0,78.9,73.0,78.0,74.7,71.0,100,88,58,30.04,29.95,7,4,12,0.00
2013-7-12,86.0,76.8,74.0,79.0,75.5,74.0,100,96,67,29.96,29.92,12,3,23,0.00
2013-7-13,88.0,77.7,73.0,80.0,75.3,73.0,100,94,62,30.01,29.92,10,4,17,0.00
2013-7-14,87.0,76.1,72.0,80.0,74.7,72.0,100,96,70,30.09,29.97,9,5,15,0.00
2013-7-15,89.0,76.9,72.0,78.0,73.7,71.0,100,91,57,30.11,30.01,11,3,17,0.00
2013-7-16,90.0,76.5,73.0,77.0,74.6,71.0,100,95,55,30.15,30.08,10,4,16,0.00
2013-7-17,90.0,77.2,74.0,80.0,74.9,73.0,100,94,63,30.15,30.07,21,4,38,0.00
2013-7-18,88.0,75.7,72.0,78.0,74.0,72.0,100,96,64,30.12,30.06,9,4,18,0.00
2013-7-19,90.0,76.3,71.0,78.0,73.4,71.0,100,92,57,30.13,30.03,9,4,14,0.00
2013-7-20,92.0,77.4,72.0,82.0,73.0,-99.9,100,90,55,30.11,30.01,21,2,33,0.00
2013-7-21,90.0,77.3,72.0,82.0,75.8,72.0,100,96,65,30.14,30.05,8,4,12,0.00
2013-7-22,89.0,76.6,74.0,81.0,75.6,74.0,100,97,66,30.14,30.07,8,3,11,0.00
2013-7-23,90.0,78.9,75.0,82.0,76.4,73.0,100,93,58,30.11,29.98,9,4,17,0.00
2013-7-24,88.0,81.3,75.0,80.0,76.1,73.0,100,85,62,30.02,29.91,12,6,20,0.00
2013-7-25,87.0,79.0,73.0,81.0,76.6,72.0,100,93,66,30.01,29.90,11,5,18,0.00
2013-7-26,90.0,80.3,76.0,80.0,76.8,74.0,100,90,61,30.02,29.95,7,3,11,0.00
2013-7-27,93.0,84.6,76.0,81.0,75.7,71.0,100,78,52,30.01,29.91,8,4,13,0.00
2013-7-28,93.0,78.9,74.0,80.0,75.7,72.0,100,92,52,30.07,29.95,8,2,14,0.00
2013-7-29,95.0,79.0,73.0,79.0,74.7,70.0,100,89,46,30.16,30.03,13,2,28,0.00
2013-7-30,95.0,82.6,74.0,82.0,75.4,71.0,100,82,48,30.19,30.09,11,3,17,0.00
2013-7-31,94.0,81.3,75.0,81.0,76.4,71.0,100,87,47,30.15,30.02,13,2,25,0.00
2013-8-1,94.0,80.2,74.0,78.0,74.8,69.0,100,87,44,30.08,29.96,8,2,13,0.00
2013-8-2,91.0,78.7,74.0,79.0,75.6,72.0,100,92,56,30.06,29.96,10,2,13,0.00
2013-8-3,90.0,78.6,75.0,81.0,76.4,74.0,100,94,64,30.11,30.02,8,3,14,0.00
2013-8-4,89.0,80.1,76.0,83.0,78.0,76.0,100,94,67,30.11,30.01,11,3,21,0.00
2013-8-5,91.0,81.1,77.0,82.0,78.2,75.0,100,92,61,30.04,29.94,10,4,17,0.00
2013-8-6,95.0,81.7,75.0,80.0,76.9,74.0,100,88,53,30.00,29.90,6,2,11,0.00
2013-8-7,95.0,81.9,76.0,82.0,76.8,72.0,100,87,49,29.98,29.91,16,3,25,0.00
2013-8-8,94.0,82.0,76.0,82.0,77.0,74.0,100,87,53,30.03,29.94,11,5,21,0.00
2013-8-9,95.0,80.0,74.0,82.0,76.0,69.0,100,90,45,30.06,29.97,9,4,17,0.00
2013-8-10,95.0,84.5,74.0,81.0,75.2,72.0,100,77,48,30.13,30.05,11,4,17,0.00
2013-8-11,96.0,84.5,75.0,82.0,75.9,70.0,100,79,43,30.17,30.06,7,3,12,0.00
2013-8-21,94.0,80.7,74.0,81.0,77.2,74.0,100,91,53,30.11,30.03,7,2,13,0.00
2013-8-22,94.0,79.8,74.0,81.0,76.7,74.0,100,92,55,30.09,30.00,16,2,33,0.00
2013-8-23,94.0,82.3,75.0,83.0,76.4,72.0,100,85,49,30.03,29.95,11,2,20,0.00
2013-8-24,94.0,80.5,75.0,81.0,75.8,72.0,100,88,52,30.11,30.01,8,1,14,0.00
2013-8-25,88.0,78.2,75.0,80.0,73.5,-99.9,100,90,66,30.16,30.09,10,2,15,0.00
2013-8-26,89.0,80.1,75.0,80.0,76.3,73.0,100,89,59,30.16,30.02,9,3,15,0.00
2013-8-27,92.0,80.0,74.0,80.0,74.3,69.0,100,86,50,30.08,29.99,9,4,18,0.00
2013-10-18,91.0,79.6,71.0,77.0,71.8,67.0,100,80,46,30.00,29.90,6,3,12,0.00
2013-10-19,90.0,79.4,73.0,77.0,73.8,69.0,100,86,50,29.97,29.88,8,3,14,0.00
2013-10-20,90.0,78.8,74.0,80.0,72.1,-99.9,100,85,55,29.98,29.89,8,2,17,0.00
2013-10-21,89.0,79.7,74.0,80.0,74.4,71.0,100,86,56,30.01,29.92,7,2,10,0.00
2013-10-22,89.0,78.5,72.0,78.0,74.0,72.0,100,88,61,29.96,29.83,10,4,17,0.00
2013-10-23,82.0,73.5,66.0,73.0,66.6,55.0,100,81,47,30.01,29.83,8,3,17,0.00
2013-10-24,74.0,67.4,61.0,63.0,57.9,51.0,92,72,56,30.16,30.01,10,6,15,0.00
2013-11-10,84.0,73.0,66.0,69.0,67.3,65.0,100,84,53,30.17,30.07,9,4,15,0.00
2013-11-11,85.0,73.3,66.0,69.0,67.6,65.0,100,85,51,30.16,30.06,8,4,14,0.00
2013-11-12,82.0,72.5,66.0,72.0,67.9,64.0,100,88,55,30.11,30.00,7,3,11,0.00
2013-11-13,68.0,62.4,55.0,67.0,55.9,52.0,97,80,63,30.29,30.07,19,10,30,0.00
2013-11-14,80.0,63.9,53.0,63.0,57.1,53.0,100,81,46,30.29,30.18,11,5,23,0.00
2013-11-15,79.0,69.1,62.0,69.0,64.8,61.0,100,88,59,30.19,30.08,9,3,15,0.00
2013-11-16,78.0,71.0,69.0,75.0,68.5,-99.9,100,95,79,30.13,30.03,12,2,17,0.00
2013-11-17,87.0,75.9,68.0,75.0,70.3,67.0,100,85,57,30.09,30.01,10,3,14,0.00
2013-12-13,78.0,63.8,51.0,62.0,55.7,47.0,100,78,49,30.26,30.12,10,5,16,0.00
2013-12-14,84.0,70.4,62.0,72.0,64.4,-99.9,100,87,62,30.13,29.96,16,5,24,0.00
2013-12-15,75.0,69.6,60.0,74.0,66.5,60.0,100,91,69,30.12,29.92,8,4,12,0.00
2013-12-16,66.0,57.8,51.0,60.0,52.0,48.0,100,83,52,30.24,30.12,9,5,13,0.00
2013-12-17,75.0,57.3,46.0,57.0,52.0,46.0,100,85,53,30.24,30.14,8,4,12,0.00
2013-12-18,72.0,59.2,47.0,52.0,47.8,43.0,100,70,38,30.28,30.20,11,4,18,0.00
2013-12-19,79.0,60.7,48.0,59.0,54.2,48.0,100,83,44,30.27,30.16,9,5,14,0.00
2013-12-20,84.0,69.4,59.0,68.0,63.6,59.0,100,84,56,30.20,30.09,14,5,19,0.00
2013-12-21,85.0,72.9,66.0,74.0,66.0,-99.9,100,84,61,30.15,30.03,17,8,26,0.00
2013-12-22,85.0,74.4,68.0,76.0,70.2,68.0,100,88,61,30.16,30.07,17,4,26,0.00
2013-12-23,85.0,74.2,68.0,78.0,70.5,68.0,100,90,61,30.19,30.09,9,4,16,0.00
2013-12-24,72.0,64.8,52.0,72.0,57.9,42.0,100,80,52,30.26,30.11,10,5,20,0.00
2013-12-26,80.0,66.1,59.0,66.0,61.6,59.0,100,87,51,30.21,30.09,11,4,15,0.00
2013-12-27,74.0,66.9,61.0,69.0,65.2,61.0,100,94,77,30.24,30.14,9,4,16,0.00
2013-12-28,82.0,70.4,65.0,73.0,65.7,-99.9,100,90,65,30.21,30.02,15,3,23,0.00
2013-12-29,78.0,70.9,63.0,77.0,70.5,63.0,100,99,80,30.02,29.90,11,4,22,0.00
2013-12-30,65.0,61.5,59.0,65.0,61.5,59.0,100,100,100,30.20,30.01,6,1,9,0.00
2013-12-31,68.0,62.8,58.0,60.0,56.0,52.0,100,80,57,30.30,30.16,10,4,17,0.00
2014-1-1,67.0,62.6,59.0,67.0,61.8,56.0,100,97,82,30.26,30.07,11,6,15,0.00
2014-1-2,81.0,70.0,62.0,75.0,67.4,62.0,100,92,65,30.07,29.85,17,5,30,0.00